Temp
12 12 12 11 11 11 11 11 10 11 11 11 11 11 11 12 12 12 13 13 13 13 14 14 14 14 14 14 14 14 14 14 14 14 14 15 15 14 14 14 14 14
11 11 11 11 11 11 11 10 10 11 10 10 10 10 11 11 11 12 12 12 13 13 13 13 14 14 13 13 13 13 13 14 14 14 14 14 14 14 14 14 14 14
11 11 11 11 11 10 10 10 11 11 11 11 11 11 10 10 11 11 11 11 11 12 12 13 13 13 13 13 13 13 13 13 13 13 14 14 14 14 14 14 14 14
11 11 10 10 10 10 9 10 10 10 10 10 10 10 10 10 10 10 10 9 10 11 11 12 12 12 13 13 13 13 13 13 14 14 14 14 14 14 14 14 14 14
11 10 10 10 10 9 9 9 9 9 9 9 9 9 9 9 9 9 9 9 9 10 11 11 11 11 12 12 12 12 13 13 13 14 14 14 14 14 14 14 14 14
10 10 10 9 9 9 9 8 8 8 8 8 8 8 8 8 8 8 9 8 8 9 10 10 11 11 11 11 11 12 12 12 13 13 14 14 14 14 14 14 14 14
10 9 9 9 9 9 8 8 8 8 8 8 8 8 8 8 7 7 8 7 8 9 9 10 10 10 10 11 11 11 11 12 12 13 13 13 14 14 14 14 14 14
9 9 9 9 9 9 8 8 8 8 7 7 7 7 7 7 7 6 7 7 7 8 8 8 8 9 9 10 10 11 11 12 12 12 12 13 13 14 14 14 14 14
9 9 9 9 9 9 8 8 8 8 7 7 7 6 6 6 6 5 6 6 6 6 7 6 6 6 8 9 9 10 11 12 12 12 12 12 12 13 13 14 14 14
9 9 9 9 8 9 8 8 8 8 7 7 6 6 6 5 5 5 5 5 5 5 5 5 4 4 5 7 8 8 10 11 11 12 12 12 12 12 13 13 13 14
9 9 9 8 8 8 8 8 8 8 7 7 6 6 5 5 5 5 5 4 4 4 4 3 3 3 4 5 6 7 8 9 10 11 11 12 12 12 13 13 13 13
9 8 8 8 8 8 8 8 8 7 7 7 6 6 5 5 5 4 4 4 4 3 3 3 3 3 3 3 4 6 7 8 8 9 10 11 11 12 12 13 13 13
9 8 8 8 8 8 8 8 7 7 7 7 6 6 5 5 5 4 4 3 3 3 3 3 3 3 3 3 4 5 5 6 7 8 9 10 11 12 12 12 13 13
9 8 8 8 8 8 7 7 7 7 7 6 6 6 5 5 5 4 4 3 3 3 3 3 3 3 3 4 4 4 5 6 6 7 8 9 10 11 11 12 12 13
8 8 8 8 8 8 7 7 7 6 6 6 6 6 5 5 5 4 4 4 3 3 3 3 3 3 3 3 3 3 4 5 6 7 8 9 9 10 10 11 12 12
8 8 8 8 8 7 7 7 6 6 6 6 6 5 5 5 4 4 4 4 3 3 3 3 2 3 4 4 4 3 4 5 6 6 7 8 8 8 8 9 10 11
8 8 8 8 8 7 7 7 6 6 6 6 6 5 5 5 4 4 4 4 3 3 3 2 2 3 4 4 5 4 4 4 4 5 5 6 6 6 6 7 8 9
8 8 8 8 8 7 7 7 6 6 6 6 6 6 5 5 4 4 4 4 3 3 3 3 2 3 3 4 4 4 4 3 3 4 4 4 4 4 5 5 5 7
8 8 8 7 7 7 7 7 7 6 6 6 6 6 5 5 5 4 4 4 3 3 3 3 3 3 3 4 4 4 4 3 3 3 3 3 3 3 4 4 4 5
8 8 7 7 7 7 7 7 7 6 6 6 6 6 5 5 5 4 4 4 4 3 3 3 3 3 3 3 4 4 4 3 2 2 2 3 3 3 3 3 3 3
8 8 7 7 7 7 7 7 6 6 6 6 6 5 5 5 5 4 4 4 4 3 3 3 3 3 3 3 4 4 4 3 3 2 2 2 3 3 3 3 3 3
8 8 7 7 7 7 7 6 6 6 6 6 6 5 5 5 4 4 4 4 3 3 3 3 3 3 3 3 3 4 3 3 3 2 2 2 2 2 3 2 2 2
8 8 7 7 7 7 6 6 6 6 6 6 5 5 5 5 4 4 4 4 3 3 3 3 2 3 3 3 3 3 3 2 2 2 2 2 2 2 2 2 2 2
8 8 7 7 7 7 6 6 6 6 5 5 5 5 5 4 4 4 4 3 3 3 3 2 2 2 3 3 3 3 3 2 1 1 1 1 2 2 2 2 2 2
8 8 8 7 7 7 6 6 6 6 5 5 5 5 5 4 4 4 3 3 3 3 2 2 2 2 3 3 3 3 3 2 1 1 1 1 1 2 2 2 2 3
8 8 8 7 7 7 6 6 6 5 5 5 5 5 4 4 4 3 3 3 3 3 2 2 2 2 3 3 3 3 2 2 2 1 0 1 1 1 1 1 2 2
Height
834 834 833 833 833 832 831 830 828 827 826 825 824 824 823 821 820 818 816 814 812 811 809 807 806 804 802 800 799 797 795 794 793 792 792 790 789 787 785 784 783 782
835 835 834 833 832 832 830 829 828 826 825 824 823 822 821 820 818 816 814 812 810 809 806 804 802 800 799 797 795 794 792 791 790 789 789 787 785 784 782 780 778 777
837 836 835 834 832 831 830 828 827 825 824 822 821 820 819 818 816 814 813 811 809 807 805 803 801 799 797 795 793 792 790 788 787 786 785 783 782 780 778 776 775 774
838 837 835 834 833 832 830 828 827 825 823 822 821 819 818 817 815 814 813 811 809 807 806 804 801 799 797 794 792 790 788 786 785 783 782 780 778 777 774 773 771 770
839 838 837 836 834 833 831 829 828 827 825 823 822 820 819 817 816 815 814 812 810 809 807 805 802 800 797 795 792 790 787 785 783 781 779 777 775 773 771 769 768 767
841 840 838 837 836 834 833 832 831 829 827 826 824 822 821 819 818 816 815 814 812 810 807 805 803 800 798 795 792 789 786 784 781 779 777 775 772 771 769 767 765 764
842 841 840 839 837 836 835 834 833 832 830 828 826 824 822 820 819 818 817 816 814 811 808 805 803 800 798 795 792 789 786 783 781 778 776 773 771 769 767 766 764 762
843 843 841 840 838 837 837 836 835 834 832 830 828 827 825 822 821 820 818 817 815 812 808 806 803 800 798 795 792 789 785 783 780 778 775 772 769 767 766 764 763 761
844 844 842 841 840 839 838 838 837 836 834 832 830 829 827 824 823 821 820 818 816 812 809 806 804 801 798 795 792 789 785 782 780 777 774 771 769 766 765 763 762 760
845 844 843 842 841 840 840 839 838 837 836 834 833 831 829 827 825 823 821 819 817 814 811 808 805 802 799 795 792 789 785 782 779 776 774 771 768 766 764 762 760 759
845 844 843 842 842 841 841 840 839 838 837 836 834 832 831 828 826 824 822 820 818 816 813 810 806 803 799 795 791 788 785 782 778 775 773 770 768 765 763 761 760 758
846 845 843 843 843 843 842 841 840 839 838 837 835 834 832 830 827 825 823 821 820 817 814 811 807 803 799 795 791 787 784 781 778 775 772 769 767 764 762 760 759 758
847 846 845 845 844 844 843 842 841 840 838 838 836 835 833 831 829 826 824 822 821 818 815 812 808 804 800 796 791 787 783 780 777 774 771 769 766 764 762 760 758 757
848 847 847 847 846 845 844 843 842 841 840 839 837 836 834 832 830 827 825 823 821 819 816 812 808 804 800 796 791 787 784 780 777 774 771 768 766 764 761 759 757 756
850 849 849 848 847 846 845 844 843 842 841 840 838 837 835 833 831 829 826 824 822 819 816 813 809 805 802 798 793 788 785 781 778 775 772 769 766 763 761 758 757 755
851 851 850 849 848 847 846 845 844 844 842 841 839 838 836 834 832 829 827 825 822 820 817 814 810 808 805 801 796 792 787 783 780 776 773 771 768 765 761 758 756 754
853 852 851 850 848 848 847 846 846 845 843 842 840 839 837 835 833 830 828 826 823 821 818 815 812 810 806 802 797 793 789 785 781 778 775 773 770 766 763 760 757 755
855 854 853 851 849 849 848 848 847 846 844 843 841 840 838 836 834 831 829 827 824 822 819 816 814 811 807 803 798 794 790 787 784 780 778 775 771 768 766 763 759 756
857 855 853 852 851 851 850 849 848 846 845 844 842 841 839 837 835 832 830 828 825 823 820 818 815 812 808 804 800 796 792 789 786 783 780 777 774 771 768 765 761 758
857 856 855 854 853 852 851 850 849 848 846 845 843 842 840 838 836 834 831 829 827 824 822 819 816 813 809 805 802 798 794 791 788 785 783 779 776 773 770 766 764 761
858 857 856 856 855 854 852 852 850 849 848 846 844 843 841 840 837 835 833 830 828 825 823 820 817 814 811 807 803 799 796 792 789 787 784 781 778 775 772 768 766 763
859 858 857 857 856 855 854 853 852 850 849 848 846 844 843 841 838 836 834 831 829 826 823 821 818 815 812 808 804 801 797 793 791 788 785 782 779 776 773 770 767 764
860 859 858 858 857 856 855 854 853 852 851 849 848 846 844 842 839 837 835 832 829 826 824 821 819 816 813 810 806 802 798 795 792 789 786 784 781 778 775 771 769 766
860 860 859 858 858 857 856 856 855 854 852 851 849 847 845 843 841 839 836 833 830 827 825 822 820 817 814 811 808 804 800 797 794 791 788 785 782 779 776 773 770 767
861 860 860 859 859 858 858 857 856 855 854 852 850 849 847 845 843 840 837 834 831 828 826 823 821 818 816 813 810 806 803 799 796 792 789 786 783 780 776 773 770 767
861 861 861 861 860 860 859 859 858 857 855 854 852 850 848 846 844 841 838 835 832 829 827 824 822 819 817 814 811 808 805 802 798 795 791 788 785 782 778 774 771 767
Wind_Speed
14 15 15 15 15 15 17 18 18 18 16 15 16 16 16 17 18 19 18 17 17 18 19 19 19 19 20 20 21 21 23 25 25 25 25 26 27 27 29 30 31 31
15 15 15 16 16 16 17 18 19 19 18 17 17 17 18 18 19 20 20 21 21 22 23 23 22 20 20 21 22 22 23 25 25 25 25 26 28 27 28 30 31 31
17 16 16 17 18 18 18 18 18 18 18 18 17 18 19 19 19 20 22 24 25 25 25 24 22 21 21 21 22 22 23 24 25 25 24 26 28 27 26 28 29 29
19 18 17 18 19 20 21 21 21 20 19 19 18 18 19 20 20 21 22 24 26 26 25 24 23 23 21 20 20 20 21 23 24 24 24 26 27 26 26 27 27 27
21 20 19 19 19 20 23 25 25 24 22 20 20 19 20 20 20 21 20 21 26 27 25 25 25 25 23 22 21 19 19 20 21 23 23 25 26 25 26 26 27 26
22 22 21 20 20 21 23 25 26 27 25 23 22 21 20 21 20 20 18 19 25 29 27 27 27 27 27 25 24 22 20 19 19 20 21 23 23 24 24 25 26 25
23 23 23 22 21 21 22 25 26 27 26 26 26 25 25 24 22 20 17 18 25 30 29 29 30 30 30 29 28 26 24 22 20 19 20 21 21 22 22 22 24 24
23 23 23 23 23 22 22 24 26 27 27 27 28 27 28 30 27 22 18 17 26 33 32 31 32 32 32 31 30 29 26 24 24 22 21 21 20 20 20 19 19 20
23 23 23 23 23 23 21 22 24 26 27 27 27 26 27 29 27 25 22 19 27 37 37 34 34 33 33 33 31 29 27 25 25 24 22 21 20 20 19 18 17 18
22 22 22 22 22 22 21 21 22 23 25 27 28 28 28 28 25 23 22 21 26 35 37 35 35 34 35 36 32 30 28 26 25 24 23 22 20 19 19 18 18 19
22 22 22 22 21 22 21 22 22 22 22 25 27 29 29 30 29 25 22 20 23 29 33 35 37 37 37 38 35 31 28 26 25 24 23 22 20 18 18 17 17 19
25 24 24 24 23 23 22 22 23 22 22 22 25 27 29 30 30 28 24 20 20 24 29 34 38 39 39 40 37 34 30 27 25 24 22 22 21 19 18 17 16 18
26 25 25 25 24 24 25 25 25 25 23 22 22 25 27 29 29 28 26 22 20 23 29 34 38 41 41 41 40 36 32 28 27 25 24 23 23 21 19 17 17 17
24 25 24 23 23 23 25 26 27 28 26 24 23 23 25 26 28 28 27 24 23 26 30 34 38 41 43 43 42 38 32 28 27 27 27 27 26 24 22 21 19 16
22 24 25 24 22 22 23 25 26 28 28 27 25 24 24 25 27 28 28 27 27 29 31 35 38 40 43 43 42 39 34 29 27 27 28 29 27 26 25 23 21 18
25 25 26 27 25 22 21 24 26 26 27 27 26 25 24 26 27 28 29 29 29 30 32 35 38 40 42 42 41 39 35 31 28 27 27 27 26 26 26 25 23 20
28 27 27 27 28 25 22 22 24 26 26 26 26 25 24 25 28 29 30 30 29 31 32 33 37 39 41 42 42 40 37 33 30 28 27 27 26 27 28 27 26 24
28 28 28 27 28 28 26 22 22 25 27 26 26 27 25 25 27 28 29 29 29 30 31 33 37 39 40 41 42 41 39 35 32 29 29 29 29 29 28 28 29 28
26 28 29 28 27 27 27 25 23 23 25 26 25 25 26 27 27 28 28 29 29 30 30 32 35 39 40 40 40 41 39 37 34 29 28 30 30 29 28 28 28 30
25 27 29 29 27 26 26 26 25 24 24 25 24 23 24 26 27 27 28 29 29 29 29 31 33 37 39 39 39 39 38 37 34 30 29 32 31 30 30 29 27 28
23 25 27 28 28 27 27 26 26 25 25 25 25 23 23 25 26 27 27 28 29 29 29 30 32 34 36 38 38 38 36 36 34 31 31 33 32 32 32 30 27 27
21 24 25 26 27 27 27 26 27 27 27 25 25 25 25 27 27 27 27 27 28 29 29 30 32 33 34 36 38 38 37 36 34 32 31 32 33 33 32 31 29 28
20 22 24 25 25 25 25 25 26 27 27 26 25 25 26 28 29 29 29 29 29 29 29 29 31 33 33 33 35 37 37 36 34 32 30 30 31 32 32 31 29 27
18 20 23 24 23 23 23 23 24 25 26 25 24 23 23 25 28 29 30 31 31 30 30 29 30 33 32 31 33 35 36 35 34 33 30 28 29 31 32 32 31 28
16 18 21 23 22 22 21 21 21 22 23 24 24 24 22 22 25 28 30 32 32 31 30 30 30 33 33 31 30 33 35 35 34 33 31 28 28 29 31 32 33 32
16 16 19 21 22 21 20 20 20 20 22 24 24 24 24 23 24 27 28 31 32 32 31 31 31 33 33 30 29 30 33 34 34 32 31 28 26 26 28 31 33 33
Wind_Direction
47 42 38 36 33 25 23 20 16 18 22 21 18 15 14 11 9 9 6 4 0 355 351 345 341 338 332 325 318 310 303 297 293 290 287 283 279 275 272 269 264 262
52 49 44 40 35 29 25 20 16 18 21 20 17 17 17 14 11 11 11 9 4 359 356 350 346 343 340 335 327 316 308 302 297 294 291 287 284 279 275 272 266 261
56 52 48 43 38 32 28 24 21 21 21 20 17 17 18 16 14 16 17 15 11 6 2 357 353 350 344 337 329 320 312 307 302 299 296 291 285 280 279 275 266 260
59 54 51 48 42 37 34 32 28 25 24 22 21 20 20 20 20 22 19 14 13 10 6 5 3 359 352 342 334 326 318 313 309 307 300 291 286 283 282 278 268 261
62 58 55 51 46 42 40 37 33 30 29 27 25 24 23 23 23 24 18 10 11 11 8 10 9 5 0 353 347 341 331 323 318 316 309 296 288 284 281 276 268 262
64 61 59 54 50 47 45 42 38 36 35 32 31 29 28 28 25 28 23 7 8 12 11 12 12 10 6 360 355 352 346 338 330 326 321 308 298 291 284 276 267 261
65 62 59 56 54 52 49 45 41 39 38 37 39 38 38 38 33 30 26 8 9 15 16 14 13 11 8 4 360 356 353 349 342 336 330 320 309 299 289 278 267 259
67 63 59 56 55 54 51 47 43 41 40 39 41 39 39 42 39 34 31 18 15 19 19 17 14 11 8 5 2 358 354 352 348 343 337 329 319 308 296 285 272 259
66 63 60 57 55 53 51 48 44 43 42 41 40 37 35 37 36 33 33 26 19 22 22 18 15 12 8 5 2 359 356 353 350 346 342 336 327 319 308 295 282 267
67 64 60 57 55 53 50 47 43 42 43 43 42 40 36 34 31 27 27 24 20 21 21 19 15 12 8 6 3 359 356 353 351 348 344 338 330 322 315 302 288 277
70 65 61 58 56 54 51 47 44 41 42 43 43 41 38 34 32 28 25 24 19 17 17 17 15 12 8 5 3 360 357 352 350 348 344 341 335 326 321 312 292 279
70 67 64 62 60 59 56 51 48 46 45 43 42 41 38 33 32 30 28 26 21 16 15 15 15 13 9 5 3 1 358 354 351 349 348 346 342 335 330 323 306 290
69 67 66 65 64 62 60 55 52 50 49 46 43 41 38 33 32 32 30 29 24 18 15 15 15 15 11 7 6 3 359 357 356 355 354 354 351 346 339 334 325 313
66 63 61 62 63 63 61 57 54 52 51 50 47 43 39 34 33 33 32 32 27 21 18 16 16 16 13 10 8 6 2 1 0 359 358 357 356 352 346 342 338 329
63 59 56 56 58 61 60 56 55 53 52 51 49 46 42 37 35 34 33 31 27 22 20 18 16 15 14 12 11 8 6 4 2 2 2 360 358 356 351 350 350 343
65 61 59 56 57 61 62 58 55 54 52 51 49 46 43 39 37 36 34 31 27 23 21 19 17 16 14 15 16 14 12 9 7 7 7 4 1 358 357 357 359 356
65 62 60 58 57 59 62 60 56 54 53 51 47 43 41 39 37 36 34 31 29 26 23 20 18 16 15 16 17 18 17 14 13 11 8 5 2 1 0 359 359 359
66 63 60 58 57 56 58 59 57 53 50 49 46 42 39 37 35 33 32 29 27 25 24 21 18 16 17 16 16 19 19 17 17 15 10 7 5 4 2 0 359 359
69 65 61 59 58 57 56 56 55 50 45 43 42 41 40 38 34 31 30 27 24 22 20 19 17 16 17 17 15 17 18 17 17 16 11 10 9 6 4 3 2 360
71 66 63 61 61 60 57 55 52 47 43 40 39 40 40 37 32 29 28 25 22 20 18 17 16 15 16 17 16 17 18 17 17 14 11 12 12 9 7 5 4 2
73 69 66 64 63 62 60 56 50 45 43 42 44 46 41 34 29 26 24 23 20 18 17 17 16 15 16 17 17 17 18 17 16 14 12 12 12 10 9 8 6 3
76 71 68 66 64 63 61 57 52 48 47 47 50 50 43 36 32 28 24 21 19 17 16 16 16 16 16 17 17 17 18 16 14 12 10 10 11 10 9 9 8 3
77 72 69 67 64 63 61 58 55 52 50 50 50 47 42 37 34 32 28 23 20 18 16 15 15 15 16 17 17 17 17 16 13 10 8 6 8 9 8 9 9 5
80 73 69 66 64 63 62 58 56 53 51 51 49 45 41 36 33 31 29 25 22 20 19 16 14 15 16 16 16 16 17 15 12 9 6 2 1 4 6 8 9 8
81 75 69 65 64 64 63 60 57 54 52 51 49 45 41 36 31 30 28 26 23 21 21 20 16 15 16 17 16 17 17 16 13 9 5 1 358 358 0 4 7 8
81 77 71 65 63 64 64 63 60 57 53 50 49 46 42 38 33 29 27 25 23 22 23 23 18 15 17 18 17 18 18 18 16 11 5 1 357 355 356 358 2 5